Regional Weather Roundup
Issued by NWS

Home | Current Version | Previous Version | Text Only | Print | Product List | Glossary Off
Versions: 1 2 3 4 5 6 7 8 9 10 11 12 13 14 15 16 17 18 19 20 21 22 23 24 25 26 27 28 29 30 31 32 33 34 35 36 37 38 39 40 41 42 43 44 45 46 47 48 49 50

000
ASUS43 KLOT 130608
RWRIL

ILLINOIS REGIONAL WEATHER ROUNDUP
NATIONAL WEATHER SERVICE CHICAGO/ROMEOVILLE IL
1200 AM CST WED DEC 13 2017

NOTE: "FAIR" INDICATES FEW OR NO CLOUDS BELOW 12,000 FEET WITH NO
SIGNIFICANT WEATHER AND/OR OBSTRUCTIONS TO VISIBILITY.

* THESE STATIONS ARE NOT UNDER NWS QUALITY CONTROL. THEY ALSO MAY NOT
  REPORT WEATHER SUCH AS PRECIPITATION OR FOG.

ILZ001-002-007-009-015-016-024-130700-
NORTHWEST ILLINOIS

CITY           SKY/WX    TMP DP  RH WIND       PRES   REMARKS
MOLINE         CLOUDY    28   7  41 SW7       29.88F WCI  21
6HR MIN TEMP:  23; 6HR MAX TEMP:  28;

STERLING*      CLOUDY    24  14  65 VRB6      29.88F WCI  17
SAVANNA*       CLOUDY    23  14  68 S9        29.85F WCI  13
$$

ILZ003-004-008-010-011-017-018-130700-
NORTH CENTRAL ILLINOIS

CITY           SKY/WX    TMP DP  RH WIND       PRES   REMARKS
ROCKFORD       CLOUDY    22  13  68 S6        29.88F WCI  14
6HR MIN TEMP:  19; 6HR MAX TEMP:  22; 6HR PCP: TRACE;

FREEPORT*      CLOUDY    22  13  67 S8        29.87F WCI  13
ROCHELLE*      CLOUDY    22  16  79 S7        29.88F WCI  13
DE KALB*       CLOUDY    21  15  77 S7        29.88F WCI  13
PERU*          CLOUDY    23  11  60 S8        29.92F WCI  14
$$

ILZ005-006-012>014-019>023-130700-
NORTHEAST ILLINOIS

CITY           SKY/WX    TMP DP  RH WIND       PRES   REMARKS
CHICAGO-OHARE  CLOUDY    22   8  55 SW5       29.90F WCI  16
6HR MIN TEMP:  18; 6HR MAX TEMP:  22;

CHICAGO-MIDWAY CLOUDY    22   8  55 SW6       29.92F WCI  14
6HR MIN TEMP:  19; 6HR MAX TEMP:  22;

AURORA         CLOUDY    21  13  71 S9        29.90F WCI  11
6HR MIN TEMP:  17; 6HR MAX TEMP:  21;

LANSING*       CLOUDY    21  10  64 SW5       29.94F WCI  14
JOLIET*        CLOUDY    22  12  65 CALM      29.93F
WAUKEGAN       CLOUDY    19   8  62 SW5       29.88F WCI  12
6HR MIN TEMP:  13; 6HR MAX TEMP:  19;

DUPAGE AIRPORT CLOUDY    20  13  74 S6        29.90F WCI  12
6HR MIN TEMP:  15; 6HR MAX TEMP:  21;

KANKAKEE*      CLOUDY    20  10  65 S6        29.95F WCI  13
WHEELING       CLOUDY    22   9  57 S7        29.91F WCI  13
6HR MIN TEMP:  18; 6HR MAX TEMP:  22;

MORRIS*        CLOUDY    22  13  69 S5        29.93F WCI  16
ROMEOVILLE*    CLOUDY    20  13  74 S6        29.92F WCI  12
NORTHERLY ISL    N/A     22   6  50 SW5         N/A  WCI  16
$$

LMZ740>746-130700-
SOUTHERN LAKE MICHIGAN

STATION/POSITION SKY/WX   TEMP    WIND        PRES    VSBY  WAVE
                          AIR SEA DIR/SP/G                  HT/PER
                          (F)     (DEG/KT/KT) (MB)    (MI)  (FT/S)
HARRISON CRIB              22     270/ 10/ 11   N/A
BURNHAM HARBOR             22     230/  4/  8   N/A
CALUMET HARBOR                    220/  3/  5 1013.1F
BURNS HARBOR               22     210/  7/ 10 1014.2F
MICHIGAN CITY              23     270/ 11/ 12   N/A
$$

ILZ025>027-034>036-040-047-049-050-058-095>099-130700-
WEST-CENTRAL ILLINOIS

CITY           SKY/WX    TMP DP  RH WIND       PRES   REMARKS
QUINCY         CLOUDY    26   9  48 S9        29.95F WCI  17
GALESBURG*     CLOUDY    24  12  59 S6        29.91F WCI  17
MACOMB*        MOCLDY    25   9  50 SW10      29.94F WCI  15
JACKSONVILLE*  CLOUDY    25   5  42 SW8       29.97F WCI  16
PITTSFIELD*    CLOUDY    27   9  47 S6        29.98F WCI  20
$$

ILZ028>032-037-038-041>044-048-051>054-059>061-130700-
CENTRAL ILLINOIS

CITY           SKY/WX    TMP DP  RH WIND       PRES   REMARKS
PONTIAC        CLOUDY    25   9  49 S7        29.95F WCI  18
BLOOMINGTON    CLOUDY    22   9  57 SW8       29.95F WCI  12
DECATUR        CLOUDY    20   8  60 S6        29.98F WCI  12
PEORIA         CLOUDY    24   9  52 S5        29.94F WCI  18
6HR MIN TEMP:  21; 6HR MAX TEMP:  26;

LACON*         CLOUDY    25   9  51 CALM      29.93F
LINCOLN*       CLOUDY    23  10  57 CALM      29.96F
SPRINGFIELD    CLOUDY    24   6  46 SW7       29.98F WCI  16
6HR MIN TEMP:  19; 6HR MAX TEMP:  29;

TAYLORVILLE    CLOUDY    22   7  54 SW7       30.00F WCI  13
6HR MIN TEMP:  19; 6HR MAX TEMP:  27;

$$

ILZ033-039-045-046-055>057-062-063-130700-
EAST-CENTRAL ILLINOIS

CITY           SKY/WX    TMP DP  RH WIND       PRES   REMARKS
CHAMPAIGN      CLOUDY    23   9  55 SW8       29.97F WCI  14
DANVILLE*      CLOUDY    21   9  58 CALM      29.95F
RANTOUL*       CLOUDY    24  13  61 SW3       29.97F
MATTOON        CLOUDY    22  10  60 S7        29.98F WCI  13
PARIS*         CLOUDY    23  11  60 SW7       29.99F WCI  15
$$

ILZ079-100>102-130700-
SOUTHWEST ILLINOIS

CITY           SKY/WX    TMP DP  RH WIND       PRES   REMARKS
ALTON          CLOUDY    22  10  59 S5        30.03F WCI  16
BELLEVILLE     CLOUDY    22  10  59 S3        30.03F
CAHOKIA*       CLOUDY    21   9  59 CALM      30.04F
SPARTA*        CLOUDY    27  10  47 S3        30.06F
$$

ILZ064>066-069>071-074>076-080>082-084>086-088>090-092>094-130700-
SOUTH-CENTRAL ILLINOIS

CITY           SKY/WX    TMP DP  RH WIND       PRES   REMARKS
CARBONDALE     CLOUDY    20  13  74 S3        30.07F
6HR MIN TEMP:  18; 6HR MAX TEMP:  30;

CAIRO*         CLOUDY    22  16  77 CALM      30.10F
EFFINGHAM*     CLEAR     20  13  75 S3        30.04F
MARION         CLOUDY    27  10  49 CALM      30.08F
MT. VERNON     CLOUDY    19  15  84 CALM      30.06F
CENTRALIA*     CLOUDY    24  13  63 CALM      30.03F
SALEM*         CLOUDY    26  10  51 S5        30.04F WCI  20
METROPOLIS*    CLOUDY    21  15  76 CALM      30.10F
$$

ILZ067-068-072-073-078-083-087-091-130700-
SOUTHEAST ILLINOIS

CITY           SKY/WX    TMP DP  RH WIND       PRES   REMARKS
LAWRENCEVILLE  CLEAR     20  12  71 S7        30.06F WCI  11
FLORA*         CLEAR     22  15  72 S3        30.05F
FAIRFIELD*     CLOUDY    20  15  82 CALM      30.05F
HARRISBURG*    CLOUDY    20  16  81 CALM      30.09F
ROBINSON*      PTCLDY    18  10  71 S7        30.05F WCI   9
CARMI*         CLOUDY    21  15  75 CALM      30.07F
$$

ABBREVIATIONS USED IN REMARKS
   TC - TEMPERATURE IN CELSIUS
  WCI - WIND CHILL INDEX
   HX - HEAT INDEX
  VSB - VISIBILITY
$$





USA.gov is the U.S. government's official web portal to all federal, state and local government web resources and services.